Flag for U.S.A. Weather past 2 weeks in Hollywood, California, U.S.A.

Now
72 °F

Clear.


Feels Like: 74 °F
Forecast: 66 / 84 °F
Wind: 3 mph from Southeast

Location: Van Nuys Airport

Current Time: Aug 2, 2014 at 2:38:20 AM

Latest Report: Aug 2, 2014 at 1:51 AM


Visibility: 10 mi

Pressure: 29.86 "Hg

Humidity: 71%

Dew point: 62 °F

Location of HollywoodLocation

Historic Weather in Hollywood — Graph

°F

Hollywood temperature yesterday

Maximum temperature yesterday: 95 °F (at 1:51 PM)
Minimum temperature yesterday: 68 °F (at 4:51 AM)
Average temperature yesterday: 79 °F

Past Weeks' High & Low Weather Summary

 TemperatureHumidityPressure
High102 °F (Jul 24, 3:51 PM)84% (Jul 19, 3:51 AM)30.05 "Hg (Jul 19, 3:51 AM)
Low62 °F (Jul 18, 4:51 AM)7% (Jul 24, 12:51 PM)29.70 "Hg (Jul 24, 5:51 PM)
Average78 °F49%29.92 "Hg
* Reported Jul 18 12:51 AM — Aug 2 12:51 AM, Hollywood, Weather by CustomWeather, © 2014

Note: Actual official high and low records may vary slightly from our data, if they occured in-between our weather recording intervals... More about our weather records

Advertising

Hollywood weather history for previous 24 hours

 ConditionsComfort  
Time TempWeatherWind HumidityBarometerVisibility
12:51 AM
Aug 2
74 °FClear.No wind67%29.86 "Hg10 mi
11:51 PM
Aug 1
74 °FClear.No wind64%29.87 "Hg10 mi
10:51 PM74 °FClear.5 mph67%29.88 "Hg10 mi
9:51 PM77 °FClear.7 mph58%29.87 "Hg10 mi
8:51 PM82 °FSunny.7 mph48%29.84 "Hg10 mi
7:51 PM84 °FSunny.5 mph40%29.82 "Hg10 mi
6:51 PM86 °FSunny.7 mph39%29.83 "Hg10 mi
5:51 PM87 °FSunny.12 mph39%29.82 "Hg10 mi
4:51 PM90 °FSunny.13 mph32%29.83 "Hg10 mi
3:51 PM91 °FSunny.10 mph36%29.83 "Hg10 mi
2:51 PM93 °FSunny.10 mph32%29.84 "Hg10 mi
1:51 PM95 °FSunny.9 mph30%29.84 "Hg10 mi
12:51 PM93 °FSunny.6 mph32%29.86 "Hg10 mi
11:51 AM90 °FSunny.6 mph37%29.88 "Hg10 mi
10:51 AM85 °FSunny.3 mph43%29.90 "Hg10 mi
9:51 AM79 °FSunny.5 mph52%29.90 "Hg10 mi
8:51 AM74 °FSunny.3 mph62%29.91 "Hg10 mi
7:51 AM71 °FSunny.No wind68%29.90 "Hg10 mi
6:51 AM68 °FClear.No wind76%29.89 "Hg10 mi
5:51 AM68 °FClear.No wind73%29.89 "Hg10 mi
4:51 AM68 °FClear.3 mph70%29.89 "Hg10 mi
3:51 AM69 °FClear.3 mph68%29.87 "Hg10 mi
2:51 AM69 °FClear.No wind68%29.88 "Hg10 mi
Weather by CustomWeather, © 2014

See weather overviewHow to use our weather pages